Flag for Germany Weather past 2 weeks in Westerland, Schleswig-Holstein, Germany

Now
54 °F

Light freezing rain. Low clouds.


Feels Like: 50 °F
Forecast: 57 / 62 °F
Wind: 15 mph from Northwest

Location: List / Sylt

Current Time: Jul 31, 2015 at 1:15:03 AM

Latest Report: Jul 30, 2015 at 10:00 PM


Visibility: 7 mi

Pressure: 29.88 "Hg

Humidity: 85%

Dew point: 50 °F

Location of WesterlandLocation

Historic Weather in Westerland — Graph

°F

Westerland temperature yesterday

Maximum temperature yesterday: 58 °F (at 1:00 AM)
Minimum temperature yesterday: 54 °F (at 10:00 PM)
Average temperature yesterday: 57 °F

Past Weeks' High & Low Weather Summary

 TemperatureHumidityPressure
High71 °F (Jul 17, 3:00 PM)99% (Jul 25, 6:00 PM)30.14 "Hg (Jul 25, 6:00 PM)
Low53 °F (Jul 17, 2:00 AM)56% (Jul 24, 10:00 AM)29.35 "Hg (Jul 28, 2:00 AM)
Average60 °F80%29.76 "Hg
* Reported Jul 15 10:00 PM — Jul 30 10:00 PM, Westerland, Weather by CustomWeather, © 2015

Note: Actual official high and low records may vary slightly from our data, if they occured in-between our weather recording intervals... More about our weather records

Advertising

Westerland weather history for previous 24 hours

 ConditionsComfort  
Time TempWeatherWind HumidityBarometerVisibility
10:00 PM
Thu, Jul 30
54 °FLight freezing rain. Low clouds.15 mph85%29.88 "Hg7 mi
9:00 PM56 °FOvercast.15 mph85%29.85 "Hg16 mi
8:00 PM56 °FLow clouds.15 mph86%29.83 "Hg13 mi
7:00 PM56 °FDrizzle. Low clouds.16 mph88%29.81 "Hg9 mi
6:00 PM57 °FLow clouds.17 mph85%29.79 "Hg11 mi
4:00 PM57 °FDrizzle. Low clouds.17 mph92%29.75 "Hg6 mi
3:00 PM56 °FRain. Low clouds.17 mph93%29.72 "Hg4 mi
2:00 PM57 °FLight freezing rain. Low clouds.17 mph92%29.70 "Hg4 mi
1:00 PM57 °FDrizzle. Low clouds.17 mph91%29.68 "Hg4 mi
12:00 PM57 °FDrizzle. Low clouds.17 mph91%29.66 "Hg7 mi
10:00 AM56 °FLight freezing rain. Low clouds.20 mph92%29.62 "Hg3 mi
9:00 AM56 °FLight freezing rain. Low clouds.17 mph95%29.60 "Hg2 mi
8:00 AM57 °FDrizzle. Low clouds.18 mph92%29.59 "Hg7 mi
7:00 AM56 °FLight freezing rain. Low clouds.20 mph94%29.56 "Hg1 mi
4:00 AM57 °FLight freezing rain. Low clouds.16 mph94%29.50 "Hg2 mi
3:00 AM58 °FDrizzle. Low clouds.16 mph94%29.50 "Hg4 mi
2:00 AM58 °FLow clouds.16 mph91%29.50 "Hg7 mi
1:00 AM58 °FLow clouds.16 mph89%29.47 "Hg10 mi
Weather by CustomWeather, © 2015

See weather overviewHow to use our weather pages